Meridian, MS

7:54 PM CST on November 18, 2017 (GMT -0600)
Key

Weather History for KMEI - January, 2014

Change the Weather History Date:

Friday, January 17, 2014

  Actual Average Record
Temperature  
Mean Temperature 38 °F 44 °F  
Max Temperature 51 °F 56 °F 80 °F (1943)
Min Temperature 25 °F 33 °F 10 °F (1977)
Degree Days  
Heating Degree Days 27 21  
Month to date heating degree days 418 350  
Since 1 July heating degree days 1463 1358  
Cooling Degree Days 0 0  
Month to date cooling degree days 0 0  
Year to date cooling degree days 0 0  
Moisture  
Dew Point 21 °F    
Average Humidity 55    
Maximum Humidity 92    
Minimum Humidity 17    
Precipitation  
Precipitation 0.00 in 0.17 in 3.40 in (1925)
Month to date precipitation 2.22 2.55  
Year to date precipitation 2.22 2.55  
Sea Level Pressure  
Sea Level Pressure 30.14 in    
Wind  
Wind Speed 7 mph (WSW)    
Max Wind Speed 23 mph    
Max Gust Speed 31 mph    
Visibility 10 miles    
Events      
T = Trace of Precipitation, MM = Missing Value Source: NWS Daily Summary

Daily Weather History Graph

Daily Weather History Graph

Search for Another Location

Airport or City:

Trip Planner

Search our weather history database for the weather conditions in past years. The results will help you decide how hot, cold, wet, or windy it might be!

Date:

Astronomy

Jan. 17, 2014 Rise Set
Actual Time 6:56 AM CST 5:14 PM CST
Civil Twilight 6:29 AM CST 5:40 PM CST
Nautical Twilight 5:59 AM CST 6:10 PM CST
Astronomical Twilight 5:30 AM CST 6:40 PM CST
Moon 6:52 PM CST (1/17) 7:31 AM CST (1/17)
Length of Visible Light 11h 11m
Length of Day
10h 18m
Full, 98% of the Moon is Illuminated
Jan 17
Full
Jan 23
Last Quarter
Jan 30
New
Feb 6
First Quarter
Feb 14
Full

Hourly Weather History & Observations

Time (CST) Temp. Windchill Dew Point Humidity Pressure Visibility Wind Dir Wind Speed Gust Speed Precip Events Conditions
12:58 AM 43.0 °F 39.5 °F 34.0 °F 71% 30.02 in 10.0 mi SW 5.8 mph - N/A   Clear
1:58 AM 39.0 °F 34.8 °F 33.1 °F 79% 30.04 in 10.0 mi South 5.8 mph - N/A   Clear
2:58 AM 35.1 °F 29.3 °F 32.0 °F 89% 30.05 in 10.0 mi South 6.9 mph - N/A   Clear
3:58 AM 37.0 °F 32.4 °F 34.0 °F 89% 30.04 in 10.0 mi SSW 5.8 mph - N/A   Clear
4:58 AM 36.0 °F 33.3 °F 34.0 °F 93% 30.06 in 10.0 mi SSE 3.5 mph - N/A   Clear
5:58 AM 37.9 °F 32.1 °F 33.1 °F 83% 30.09 in 10.0 mi WSW 8.1 mph - N/A   Clear
6:58 AM 41.0 °F 37.1 °F 32.0 °F 70% 30.11 in 10.0 mi WNW 5.8 mph - N/A   Clear
7:58 AM 42.1 °F - 30.9 °F 65% 30.12 in 10.0 mi Calm Calm - N/A   Partly Cloudy
8:58 AM 44.1 °F 40.8 °F 28.0 °F 53% 30.15 in 10.0 mi West 5.8 mph - N/A   Clear
9:58 AM 45.0 °F 39.7 °F 23.0 °F 42% 30.17 in 10.0 mi WNW 10.4 mph - N/A   Clear
10:58 AM 48.0 °F - 18.0 °F 30% 30.16 in 10.0 mi West 13.8 mph 21.9 mph N/A   Clear
11:58 AM 50.0 °F - 17.1 °F 27% 30.12 in 10.0 mi West 10.4 mph 23.0 mph N/A   Clear
12:58 PM 51.1 °F - 14.0 °F 23% 30.09 in 10.0 mi West 15.0 mph 23.0 mph N/A   Clear
1:58 PM 50.0 °F - 9.0 °F 19% 30.10 in 10.0 mi West 16.1 mph 28.8 mph N/A   Clear
2:58 PM 48.9 °F - 8.1 °F 19% 30.12 in 10.0 mi West 15.0 mph 25.3 mph N/A   Clear
3:58 PM 46.9 °F - 5.0 °F 18% 30.14 in 10.0 mi NW 15.0 mph 27.6 mph N/A   Clear
4:58 PM 44.1 °F 38.6 °F 8.1 °F 23% 30.16 in 10.0 mi WNW 10.4 mph - N/A   Clear
5:58 PM 39.9 °F - 10.0 °F 29% 30.18 in 10.0 mi Calm Calm - N/A   Clear
6:58 PM 37.9 °F 34.4 °F 10.9 °F 33% 30.20 in 10.0 mi WNW 4.6 mph - N/A   Clear
7:58 PM 32.0 °F 27.5 °F 17.1 °F 54% 30.21 in 10.0 mi SSW 4.6 mph - N/A   Clear
8:58 PM 28.0 °F 24.2 °F 18.0 °F 66% 30.22 in 10.0 mi SSW 3.5 mph - N/A   Clear
9:58 PM 27.0 °F - 19.0 °F 72% 30.23 in 10.0 mi Calm Calm - N/A   Clear
10:58 PM 25.0 °F 20.7 °F 19.9 °F 81% 30.24 in 10.0 mi SSW 3.5 mph - N/A   Clear
11:58 PM 25.0 °F - 21.0 °F 85% 30.24 in 10.0 mi Calm Calm - N/A   Clear